Preview of NWS' New Version of Forecast
This preview is not operational and should not be used for support decisions.

Regional Weather Roundup (RWR)

Issued by National Weather Service (NWS)

                            
000
ASUS44 KMEG 211800
RWRTN 
TENNESSEE HOURLY STATE WEATHER ROUNDUP
NATIONAL WEATHER SERVICE MEMPHIS TN
100 PM CDT SUN JUL 21 2019

TNZ002-004-019-021-049-052-054-088>092-211900-
WEST TENNESSEE
  
CITY           SKY/WX    TMP DP  RH WIND       PRES   REMARKS
MEMPHIS INTL   PTSUNNY   92  77  61 SW7       29.98F HX 105           
NWS MEMPHIS      N/A     89 N/A N/A MISG        N/A                   
JACKSON        CLOUDY    83  76  79 S6        30.02F HX  91           
DYERSBURG      CLOUDY    86  78  77 VRB3      29.99F HX  98           
SELMER           N/A     81  75  83 SW5       30.02F                  
$$

TNZ008-025-027-028-033-062-065-066-211900-
NORTH MIDDLE TENNESSEE
  
CITY           SKY/WX    TMP DP  RH WIND       PRES   REMARKS
NASHVILLE      PTSUNNY   81  75  82 S10       30.04S                  
CLARKSVILLE    FAIR      86  77  74 VRB5      30.00S HX  97           
SMYRNA         CLOUDY    81  75  82 SW6       30.04F                  
COOKEVILLE     MOSUNNY   86  75  70 SW8       30.04F HX  95           
CROSSVILLE     FAIR      81  70  69 W8        30.10F                  
$$

TNZ061-075-076-078-094-096-097-211900-
SOUTH MIDDLE TENNESSEE
  
CITY           SKY/WX    TMP DP  RH WIND       PRES   REMARKS
$$

TNZ017-018-042-046-047-211900-
NORTHEAST TENNESSEE
  
CITY           SKY/WX    TMP DP  RH WIND       PRES   REMARKS
TRI CITIES     PTSUNNY   86  70  58 W7        30.07F HX  90           
$$

TNZ012-013-036-069-073-074-211900-
CENTRAL EAST TENNESSEE
  
CITY           SKY/WX    TMP DP  RH WIND       PRES   REMARKS
KNOXVILLE      CLOUDY    87  69  54 W13G20    30.04F HX  91           
OAK RIDGE      FAIR      87  71  58 SW5       30.06F HX  93           
$$

TNZ083-085-099-211900-
SOUTHEAST TENNESSEE
  
CITY           SKY/WX    TMP DP  RH WIND       PRES   REMARKS
CHATTANOOGA    PTSUNNY   88  70  55 S8        30.05F HX  93           
$$

SKY/WX REPORTED AS FAIR MEANS FEW OR NO CLOUDS BELOW
12 THOUSAND FEET.